Location: Boiro
(42.6475°N, 8.8834°W)
Time: 14:24:22
(UTC+01:00)

Envisat - Pass Details

Date: 01 November 2021
Orbit: 764 x 766 km, 98.2° (Epoch: 07 December)

Event Time Altitude Azimuth Distance (km) Brightness Sun altitude
Rises 07:00:21 0° 10° (N) 3,241 6.3 -13.2°
Reaches altitude 10° 07:02:40 10° 7° (N) 2,311 5.5 -12.8°
Maximum altitude 07:07:42 66° 287° (WNW) 837 2.9 -11.8°
Drops below altitude 10° 07:12:43 10° 206° (SSW) 2,293 5.3 -10.9°
Sets 07:15:01 0° 203° (SSW) 3,215 6.1 -10.5°
